CW2434 Weather Reports


Display with metric or nautical units.
time (UTC)temp
F
wind
direction
speed
MPH
gust
MPH
rain 1hr
in
rain 24hr
in
rain mn
in
humidity
%
barometer
mb
20260510153053 63 215 4.0 13.0 0.00 0.33 0.00 75 1012.8
20260510151557 62 200 6.0 11.0 0.00 0.33 0.00 78 1012.8
20260510150048 61 276 5.0 11.0 0.00 0.33 0.00 78 1012.8
20260510144609 60 135 2.0 8.0 0.00 0.33 0.00 82 1012.6
20260510143057 59 225 3.0 7.0 0.00 0.33 0.00 82 1012.7
20260510141547 58 119 3.0 9.0 0.00 0.33 0.00 85 1012.4
20260510140050 57 0 1.0 7.0 0.00 0.33 0.00 86 1012.3
20260510134552 56 167 1.0 6.0 0.00 0.33 0.00 86 1012.5
20260510133048 55 261 2.0 6.0 0.00 0.33 0.00 90 1012.6
20260510131551 54 250 1.0 7.0 0.00 0.33 0.00 91 1012.5
20260510130046 53 178 1.0 7.0 0.00 0.33 0.00 92 1012.5
20260510124550 52 0 0.0 4.0 0.00 0.33 0.00 93 1012.6
20260510123053 52 0 0.0 0.0 0.00 0.33 0.00 94 1012.2
20260510121555 52 0 0.0 0.0 0.00 0.33 0.00 94 1012.2
20260510120052 51 0 0.0 0.0 0.00 0.33 0.00 94 1012.2
20260510114547 51 0 0.0 0.0 0.00 0.33 0.00 95 1012.1
20260510113059 51 0 0.0 0.0 0.00 0.33 0.00 95 1011.8
20260510111551 51 0 0.0 0.0 0.00 0.33 0.00 95 1011.6
20260510110059 50 0 0.0 0.0 0.00 0.33 0.00 95 1011.4
20260510104547 50 0 0.0 3.0 0.00 0.33 0.00 95 1011.2
20260510103052 50 0 0.0 1.0 0.00 0.33 0.00 95 1011.5
20260510101556 50 0 0.0 4.0 0.00 0.33 0.00 95 1011.0
20260510100058 50 0 0.0 7.0 0.00 0.33 0.00 95 1011.2
20260510094552 49 0 0.0 7.0 0.00 0.33 0.00 95 1011.0
20260510093051 49 0 2.0 7.0 0.00 0.33 0.00 95 1010.9
20260510091552 49 135 3.0 8.0 0.00 0.33 0.00 95 1010.6
20260510090047 49 135 2.0 7.0 0.00 0.33 0.00 95 1010.8
20260510084553 49 0 0.0 3.0 0.00 0.34 0.00 95 1010.9
20260510083051 49 109 0.0 3.0 0.00 0.34 0.00 95 1011.0
20260510081552 49 144 0.0 2.0 0.00 0.34 0.00 95 1011.2
20260510074550 50 0 0.0 3.0 0.00 0.34 0.00 95 1011.6
20260510073110 50 240 1.0 6.0 0.00 0.34 0.00 95 1011.8
20260510071547 50 280 0.0 2.0 0.00 0.34 0.00 95 1011.6
20260510070056 50 0 0.0 0.0 0.00 0.34 0.00 95 1011.6
20260510064614 50 0 0.0 1.0 0.00 0.34 0.00 95 1011.2
20260510063048 50 167 0.0 2.0 0.00 0.34 0.00 95 1011.2
20260510061546 50 0 0.0 4.0 0.00 0.34 0.00 95 1011.2
20260510060050 50 0 0.0 0.0 0.00 0.34 0.00 95 1011.2
20260510054550 50 0 0.0 3.0 0.00 0.34 0.00 95 1011.3
20260510053054 49 0 0.0 3.0 0.00 0.34 0.00 95 1010.9
20260510051553 49 0 0.0 3.0 0.00 0.34 0.00 95 1010.9
20260510044602 48 0 0.0 1.0 0.00 0.34 0.00 94 1011.0
20260510043053 48 107 0.0 0.0 0.00 0.34 0.00 94 1011.0
20260510041553 48 0 0.0 0.0 0.00 0.34 0.00 95 1011.1
20260510040049 48 0 0.0 0.0 0.00 0.34 0.00 94 1011.0
20260510034608 49 0 0.0 0.0 0.00 0.34 0.34 94 1010.9
20260510033058 49 0 0.0 0.0 0.00 0.34 0.34 94 1010.8
20260510031555 49 0 0.0 3.0 0.00 0.34 0.34 94 1011.0
20260510030111 49 0 0.0 5.0 0.00 0.34 0.34 94 1011.2
20260510024553 49 0 0.0 3.0 0.00 0.34 0.34 94 1011.1
20260510023050 49 0 1.0 4.0 0.00 0.34 0.34 94 1010.9
20260510021559 49 0 0.0 0.0 0.00 0.34 0.34 94 1010.9
20260510020049 49 0 0.0 0.0 0.00 0.34 0.34 94 1010.9
20260510014600 49 0 0.0 0.0 0.00 0.34 0.34 93 1011.1
20260510013103 49 0 0.0 0.0 0.00 0.34 0.34 93 1010.7
20260510011554 50 0 0.0 0.0 0.00 0.34 0.34 92 1010.5
20260510010050 50 0 0.0 0.0 0.00 0.34 0.34 92 1010.6
20260510004550 51 0 0.0 2.0 0.00 0.34 0.34 92 1010.4
20260510003103 51 0 2.0 8.0 0.00 0.34 0.34 93 1009.9
20260510001551 51 85 3.0 10.0 0.00 0.34 0.34 92 1009.8
20260510000106 51 141 2.0 11.0 0.00 0.34 0.34 92 1009.6
20260509234549 52 0 0.0 3.0 0.00 0.34 0.34 92 1009.7
20260509233050 52 212 1.0 6.0 0.00 0.34 0.34 92 1009.8
20260509231553 52 223 2.0 8.0 0.00 0.34 0.34 91 1009.9
20260509230058 53 85 3.0 12.0 0.00 0.34 0.34 92 1009.5
20260509224552 53 0 1.0 10.0 0.00 0.34 0.34 92 1009.6
20260509223049 52 145 3.0 9.0 0.00 0.34 0.34 92 1009.6
20260509221559 53 146 4.0 11.0 0.01 0.34 0.34 92 1009.9
20260509220051 52 108 2.0 6.0 0.02 0.34 0.34 93 1010.1
20260509214600 52 202 2.0 7.0 0.05 0.34 0.34 93 1010.1
20260509213050 52 206 2.0 12.0 0.06 0.34 0.34 92 1010.2
20260509211548 52 143 4.0 9.0 0.07 0.33 0.33 93 1010.3
20260509210054 52 0 1.0 4.0 0.08 0.32 0.32 93 1010.2
20260509204550 52 0 1.0 4.0 0.06 0.29 0.29 92 1010.7
20260509203048 52 229 1.0 5.0 0.06 0.28 0.28 92 1010.8
20260509201548 52 0 1.0 8.0 0.04 0.25 0.25 92 1011.0
20260509200058 53 0 0.0 7.0 0.05 0.24 0.24 91 1011.0
20260509194554 53 0 1.0 10.0 0.05 0.23 0.23 91 1011.2
20260509193050 53 210 5.0 13.0 0.10 0.22 0.22 91 1011.5
20260509191549 54 233 2.0 9.0 0.16 0.21 0.21 92 1011.8
20260509190049 54 217 3.0 10.0 0.15 0.19 0.19 91 1011.6
20260509184547 54 0 0.0 3.0 0.15 0.18 0.18 91 1011.4
20260509183102 55 0 0.0 3.0 0.09 0.12 0.12 90 1011.3
20260509181549 55 199 0.0 2.0 0.02 0.05 0.05 89 1011.1
20260509180052 55 0 0.0 4.0 0.01 0.04 0.04 89 1011.1
20260509174552 55 0 0.0 5.0 0.00 0.03 0.03 89 1011.0
20260509173052 55 170 0.0 5.0 0.00 0.03 0.03 88 1010.9
20260509171550 54 216 1.0 10.0 0.01 0.03 0.03 88 1011.0
20260509170050 54 69 1.0 6.0 0.01 0.03 0.03 88 1011.2
20260509164550 54 154 3.0 8.0 0.01 0.03 0.03 88 1011.2
20260509163050 53 0 0.0 5.0 0.02 0.03 0.03 88 1011.6
20260509161549 53 0 1.0 5.0 0.01 0.02 0.02 86 1011.6
20260509160048 53 174 1.0 6.0 0.01 0.02 0.02 86 1012.1
20260509154550 53 227 1.0 5.0 0.01 0.02 0.02 85 1012.3